GFSGBSN_sfc_temp_000.txt.gz
Temp
67 66 66 66 66 66 66 65 64 64 64 65 65 65 65 65 65 66 66 66 67 68 68 67 67 68 74 75 77 84 81 82 85 86 82 81 78 76 72 76 76 72 74 77 76 74 75
67 66 66 66 66 66 65 65 64 64 64 64 65 65 65 65 64 65 65 66 66 67 66 67 68 67 75 70 87 89 87 86 85 84 83 82 80 82 76 75 73 76 75 74 74 74 75
67 66 66 66 66 66 65 65 64 63 63 64 64 65 65 64 64 64 65 65 65 65 66 67 68 76 76 76 88 89 87 85 85 84 81 84 84 79 79 72 78 76 68 70 71 72 71
66 66 66 66 66 65 65 64 64 63 63 64 64 64 64 63 63 64 64 64 64 65 66 67 67 77 73 86 87 85 88 85 86 87 83 83 83 78 76 77 75 70 69 58 70 71 72
66 66 66 66 65 65 65 64 64 63 63 63 63 63 63 63 62 63 63 64 65 67 67 68 75 76 73 79 80 86 86 82 84 84 83 86 81 75 74 66 62 65 58 61 64 73 71
66 66 65 65 65 65 65 64 64 63 62 63 62 62 62 61 62 62 62 63 69 68 73 81 81 72 77 76 81 84 87 84 79 79 76 75 72 66 66 63 53 60 60 65 64 68 69
66 66 65 65 65 64 64 64 63 63 62 62 62 62 61 61 61 61 66 76 71 69 75 72 75 76 78 83 84 79 84 80 79 75 65 70 63 59 66 68 70 67 65 64 69 72 66
66 66 65 65 65 64 64 64 63 63 62 62 62 61 61 61 61 60 63 73 73 73 64 78 78 78 81 83 74 78 84 72 71 63 70 66 58 70 75 73 69 68 63 62 68 69 65
65 65 65 64 65 64 64 63 63 63 62 62 61 60 61 61 60 64 75 76 80 79 64 73 76 75 76 78 73 76 78 75 70 66 68 64 69 75 72 68 66 64 62 63 63 65 66
64 64 64 63 63 63 63 63 63 62 62 61 61 60 60 60 63 79 76 80 80 79 58 64 67 73 75 76 68 82 81 76 71 66 69 68 74 69 66 66 68 59 68 68 64 58 49
63 63 62 62 62 62 61 61 61 62 62 61 60 60 59 59 67 75 76 81 80 74 47 67 68 81 78 70 69 69 80 73 64 68 68 64 64 63 63 66 70 62 65 63 62 56 54
63 63 62 62 61 61 61 61 61 61 61 60 60 59 58 68 70 78 81 79 74 57 49 63 70 66 66 69 71 70 69 73 74 66 68 67 70 69 68 71 69 66 62 59 58 53 42
62 62 62 61 61 61 61 61 61 61 61 60 59 59 58 75 72 80 79 73 57 50 70 63 64 68 65 66 66 67 63 61 59 53 55 64 65 69 71 61 63 61 54 44 41 40 41
62 62 61 61 61 61 61 61 61 61 60 59 58 58 66 76 81 79 75 64 48 64 68 72 68 67 62 67 67 67 63 58 64 63 59 56 53 63 68 63 57 56 56 47 39 41 48
62 62 62 61 61 61 61 61 60 60 60 58 57 76 75 79 78 77 67 52 58 66 70 67 67 62 62 66 67 66 63 61 66 65 56 57 58 71 69 69 67 58 50 60 51 54 47
62 62 62 62 62 61 60 60 60 60 59 58 61 69 72 81 79 73 60 53 62 70 69 68 58 64 60 65 63 63 63 68 65 71 70 64 55 67 66 67 66 62 63 48 48 38 37
62 61 61 61 60 60 60 60 60 60 58 57 63 65 70 78 77 65 53 58 64 71 72 64 61 59 59 58 62 63 64 69 70 69 70 66 60 58 57 55 55 54 52 55 54 51 41
62 61 61 61 60 59 59 60 60 59 57 63 64 57 73 77 59 62 57 62 62 67 70 66 65 62 59 59 58 58 58 67 72 70 64 68 60 52 53 63 65 62 57 57 48 45 51
61 61 61 61 60 59 59 59 59 58 56 56 58 61 74 72 52 56 62 63 66 65 65 63 61 64 65 58 52 59 61 68 69 66 63 64 56 47 51 55 58 55 60 61 59 55 50
61 61 61 61 60 59 59 59 59 58 57 57 58 53 65 65 63 56 54 56 56 64 62 60 57 59 57 55 59 54 56 63 57 65 66 61 57 53 45 52 56 50 56 59 57 49 50
61 61 61 61 60 59 59 59 59 58 57 56 59 56 58 51 55 56 56 55 53 52 61 62 57 56 53 46 48 46 52 54 58 58 59 59 51 56 58 61 62 60 57 56 54 55 50
61 60 61 60 60 59 59 59 58 57 57 57 52 49 53 49 53 52 51 51 51 54 56 54 53 56 54 48 48 43 45 47 45 50 45 49 43 51 52 59 59 57 60 60 57 57 57
60 60 60 60 60 59 59 58 58 57 56 55 60 58 50 46 48 47 49 51 51 55 56 58 55 52 50 53 57 54 50 48 46 42 38 38 38 39 37 53 55 49 56 59 60 61 58
60 60 60 60 59 59 59 59 58 57 55 57 55 52 44 40 45 46 49 50 48 50 48 53 54 50 55 62 59 56 53 52 51 48 46 39 38 36 34 42 35 55 65 65 61 63 62
59 59 59 60 60 59 59 59 59 58 57 55 58 50 44 38 45 45 47 47 50 52 50 50 55 58 59 54 43 39 40 43 47 48 47 46 42 36 33 34 43 55 60 59 55 54 63
59 59 59 59 59 59 58 58 58 58 57 55 56 57 48 39 40 47 44 46 42 43 46 50 58 59 55 45 40 30 30 38 38 45 52 49 47 39 35 32 32 47 61 64 60 45 60
58 59 59 59 59 58 59 58 58 58 57 55 55 59 48 40 48 48 42 42 48 45 40 46 49 50 52 38 33 32 31 42 33 35 37 39 37 32 32 30 37 52 62 61 45 48 58
58 58 58 58 58 58 58 58 58 58 57 54 53 59 49 43 47 51 52 46 46 44 36 44 41 45 43 36 34 35 34 38 36 40 39 37 33 32 35 31 30 48 49 43 45 53 55
58 58 58 58 58 57 57 57 57 57 57 56 48 58 57 45 46 55 55 57 55 54 46 46 41 43 44 38 37 36 32 35 34 28 43 33 39 34 35 37 44 49 47 48 51 51 54

GFSGBSN_sfc_temp_003.txt.gz
Temp
67 67 66 66 66 66 66 65 64 64 64 65 65 65 65 65 65 65 65 65 66 67 67 66 67 67 67 62 67 79 80 80 78 78 75 73 68 65 61 65 68 63 66 71 70 69 69
67 67 66 66 66 66 65 65 64 63 63 64 64 65 65 64 64 64 65 65 66 66 66 66 67 67 64 58 79 80 80 79 80 77 75 74 70 72 68 65 64 66 68 68 68 68 68
67 67 66 66 66 65 65 64 63 63 63 63 64 64 64 63 63 63 64 64 65 65 65 66 67 72 66 66 78 78 81 77 78 77 72 76 74 68 68 63 70 68 61 62 64 66 65
66 66 66 66 66 65 65 64 63 63 63 63 64 64 63 63 62 63 63 63 63 64 65 66 66 66 60 77 74 79 80 77 80 79 76 76 75 70 66 68 66 60 58 49 61 64 66
67 67 66 66 65 65 64 64 63 63 62 63 63 62 62 62 62 62 63 63 64 66 66 67 66 63 61 76 72 78 78 75 77 77 75 83 73 66 66 56 51 53 46 51 57 65 64
66 66 66 65 65 65 65 64 63 63 62 62 62 62 61 61 61 62 61 63 66 65 70 74 75 61 69 69 74 77 75 77 73 72 70 67 62 56 54 50 43 48 48 55 53 61 61
66 65 65 65 64 64 65 64 63 63 62 62 62 61 61 61 61 61 59 64 62 60 64 62 66 66 72 74 76 71 77 72 71 66 55 61 53 48 53 56 58 57 56 55 59 65 60
64 64 64 63 63 63 63 63 63 63 62 62 62 61 60 61 60 60 57 61 64 64 55 68 70 71 75 74 67 70 76 64 62 54 58 55 49 59 63 62 61 59 55 54 60 63 61
63 63 62 62 62 62 62 62 62 62 62 61 61 60 60 60 59 59 63 66 71 69 55 64 70 69 70 72 66 67 71 66 60 56 56 50 59 67 64 61 60 58 55 53 55 59 60
63 63 63 62 62 62 61 61 61 61 61 61 60 60 60 59 61 64 65 70 70 68 46 57 63 68 71 69 62 74 73 68 62 57 58 56 66 65 60 60 61 52 61 61 59 52 43
63 62 62 62 62 61 61 61 61 61 61 60 60 59 59 57 58 63 68 70 68 63 38 61 63 75 71 64 65 65 72 66 58 60 58 55 59 58 57 60 63 56 62 58 57 50 44
62 62 62 61 61 61 61 60 60 61 60 60 60 59 59 58 58 66 69 68 63 47 40 57 62 61 60 62 64 65 64 67 65 59 61 57 65 62 62 64 64 62 58 55 51 46 36
62 62 62 62 61 61 61 60 60 61 60 60 59 59 57 66 63 69 68 61 46 38 62 57 58 61 58 57 59 60 56 52 50 44 45 54 58 62 66 56 58 57 48 37 35 33 35
63 63 62 62 61 61 60 60 60 60 60 59 58 58 60 68 66 67 62 53 36 54 57 63 62 60 55 60 58 59 54 49 54 52 46 43 44 57 62 60 52 51 50 38 31 32 42
62 62 61 61 61 60 60 60 60 60 59 58 57 59 60 65 67 64 54 41 45 54 61 57 59 53 53 59 57 56 52 53 56 57 47 46 48 61 62 62 62 50 47 56 43 43 37
62 61 61 61 60 60 60 60 60 60 59 57 49 54 59 68 67 60 48 46 51 61 63 60 50 55 49 54 51 52 51 59 59 62 63 54 48 60 61 61 59 54 55 43 41 33 30
62 61 61 61 60 59 59 60 60 60 58 58 52 51 61 68 64 52 41 46 56 64 63 57 53 52 52 50 53 51 53 60 61 62 62 60 50 53 53 50 52 49 50 48 47 40 33
61 61 61 61 60 59 59 60 60 59 56 53 48 46 63 64 48 46 43 52 57 58 61 58 59 56 53 53 52 52 52 57 61 58 55 60 54 48 53 55 60 59 55 55 43 37 43
61 61 61 60 59 59 59 59 59 58 56 46 42 47 61 60 40 41 49 54 56 56 55 55 53 56 56 50 44 50 51 55 52 53 50 51 49 44 48 48 50 48 54 54 56 45 46
61 61 61 60 59 59 58 58 58 58 57 48 43 40 48 51 49 44 45 46 48 55 54 56 54 55 52 49 52 47 46 52 53 52 55 54 49 47 42 49 51 45 50 54 51 45 47
61 61 61 60 60 59 59 58 58 58 57 48 44 41 43 36 40 41 41 44 44 44 52 53 49 49 45 43 46 43 48 50 52 54 47 45 39 42 41 43 46 50 54 53 50 52 47
60 60 61 61 60 59 59 58 58 57 56 46 41 39 41 38 40 39 41 39 43 46 45 44 42 46 46 40 43 40 44 42 41 45 45 45 34 36 34 40 40 38 44 47 54 55 54
60 60 60 60 60 59 59 58 57 56 54 43 45 47 47 43 37 35 37 42 43 46 47 49 47 44 42 45 48 47 46 47 46 42 40 39 37 34 29 40 37 31 42 48 52 58 57
59 59 59 60 60 59 59 59 58 57 54 46 45 43 38 37 38 39 43 44 42 44 40 46 48 43 48 51 49 47 44 45 44 43 44 38 36 36 29 34 25 43 53 53 52 56 60
59 59 59 60 60 59 58 59 59 57 56 47 47 46 42 36 40 40 42 42 43 44 42 43 47 50 48 45 37 33 35 37 41 45 44 43 38 33 30 31 38 44 50 49 41 41 55
59 59 59 59 59 59 58 58 58 58 56 48 46 47 44 38 39 43 41 41 36 36 38 43 48 51 46 39 34 20 26 32 30 37 46 43 40 35 34 28 25 42 48 52 48 37 45
59 59 59 59 59 58 58 58 58 57 57 51 46 49 42 38 43 43 39 40 43 42 38 42 41 41 43 34 30 26 27 36 27 30 31 31 31 30 31 30 34 46 51 50 35 35 43
58 59 59 59 59 58 58 58 58 57 57 50 47 49 43 40 44 47 47 42 42 42 36 41 39 39 34 30 29 27 26 31 31 33 31 30 28 27 28 27 24 47 47 40 42 43 44
58 58 58 58 58 58 58 58 57 57 57 55 46 51 51 43 43 50 51 52 50 49 43 42 41 40 42 33 32 31 27 29 31 26 39 27 35 31 32 34 45 49 48 50 47 46 46

GFSGBSN_sfc_temp_009.txt.gz
Temp
67 66 65 65 65 65 65 64 63 63 63 64 64 64 64 64 64 64 64 65 65 66 66 66 66 67 63 57 63 74 79 78 72 72 69 67 61 59 56 59 60 57 61 65 66 66 65
66 67 66 66 66 65 64 64 63 63 63 63 64 64 64 63 63 63 64 64 65 66 65 65 67 66 60 54 72 74 73 71 73 70 68 67 64 65 60 60 59 62 63 63 64 63 64
67 67 66 66 65 65 64 64 63 62 63 63 64 64 64 63 63 63 64 64 64 64 64 66 66 68 59 62 72 71 73 70 72 71 67 69 68 63 61 59 65 62 57 59 59 60 61
66 65 65 65 65 65 65 64 63 62 63 63 63 63 63 62 62 63 63 64 63 64 65 66 66 62 57 72 70 71 71 71 72 72 71 71 69 65 62 64 61 55 53 46 55 59 62
65 64 64 64 64 64 64 64 64 63 63 63 62 62 62 62 62 62 63 63 64 66 66 67 62 60 57 74 67 72 71 69 70 70 69 78 68 61 60 53 49 48 42 45 51 58 58
63 63 63 63 63 63 63 63 63 62 62 62 62 61 61 61 61 62 62 64 65 66 67 70 70 56 62 62 67 69 68 70 66 66 65 62 56 51 49 47 42 43 43 46 46 55 53
64 63 63 63 63 62 63 63 62 62 62 62 62 61 60 61 61 61 59 62 60 59 60 59 59 59 63 68 70 65 70 68 65 61 50 55 48 45 49 52 50 50 46 46 51 58 54
63 63 63 62 62 62 62 62 62 62 62 61 61 61 61 61 60 60 56 62 60 62 52 62 62 62 66 67 61 63 69 60 57 50 52 49 44 53 55 54 52 49 47 46 51 57 54
63 63 62 62 62 62 62 61 61 61 61 61 61 60 60 60 60 59 60 61 66 65 52 58 62 62 64 67 60 61 67 59 54 50 50 45 52 58 55 52 50 50 48 47 50 55 52
63 63 63 62 62 62 61 61 61 61 61 60 60 60 60 59 60 59 60 66 65 63 45 53 58 63 65 65 59 68 67 63 54 51 50 48 58 57 52 51 52 47 54 54 53 47 43
63 63 62 62 61 61 61 61 61 61 60 60 59 59 59 59 55 60 62 63 62 60 38 56 58 69 63 60 60 60 66 61 54 54 52 50 52 52 50 54 55 50 57 52 51 45 40
63 62 62 61 61 61 60 60 60 60 60 60 59 59 58 58 56 61 63 61 61 46 37 52 58 57 55 57 59 61 60 62 60 54 52 54 58 56 55 58 58 57 52 48 43 41 35
62 62 61 61 61 60 60 60 60 61 60 59 58 58 56 62 59 61 61 57 45 38 56 51 53 57 52 52 54 55 52 50 48 42 41 48 51 55 61 53 54 52 45 35 33 31 38
62 61 61 60 60 60 60 60 60 60 60 58 57 58 59 63 60 60 58 51 34 48 49 56 55 54 51 53 52 52 48 46 51 46 41 40 42 51 56 55 50 48 49 40 30 31 42
61 61 61 60 60 60 60 60 60 60 59 57 57 54 57 62 62 59 53 40 40 46 52 51 52 46 46 51 51 51 45 46 50 49 43 41 41 55 57 58 56 47 41 53 42 48 34
61 61 61 60 60 59 59 60 60 59 58 56 51 53 56 62 60 56 47 43 45 53 53 52 42 47 41 46 45 46 45 51 48 51 50 45 39 52 56 55 54 51 52 40 36 32 32
61 61 61 60 59 59 59 60 60 59 57 55 51 51 60 61 59 50 39 40 49 55 54 50 45 45 44 42 43 42 46 50 50 49 50 46 41 44 49 47 48 49 44 43 43 40 37
61 61 61 60 59 58 59 59 59 58 56 50 46 44 58 58 46 38 39 45 51 50 52 51 49 47 43 43 41 43 44 48 51 51 43 48 43 37 43 53 57 54 49 44 39 37 37
61 61 61 60 59 58 58 58 58 57 55 46 41 42 53 54 37 35 40 45 48 47 47 47 45 46 45 42 37 42 41 50 50 48 45 46 40 31 36 43 42 37 41 42 38 35 32
60 60 60 60 59 58 58 58 58 57 56 45 41 39 42 42 38 35 33 37 41 47 45 45 44 45 41 38 42 38 39 46 48 47 53 49 39 35 29 35 40 37 41 43 38 29 30
60 60 60 60 59 59 58 58 58 57 56 46 39 35 37 32 34 33 33 36 37 38 43 43 40 40 37 32 35 35 39 41 45 48 45 41 32 36 38 40 40 39 39 39 36 35 29
59 59 60 60 59 59 58 58 57 56 54 42 37 36 37 33 34 32 34 32 37 38 38 37 37 39 38 33 35 32 37 37 36 41 40 39 32 36 31 37 37 34 39 39 38 39 39
59 59 59 59 59 58 58 57 57 55 51 40 40 41 38 36 32 30 31 36 38 38 40 42 40 37 35 38 42 42 42 42 41 37 36 35 32 28 25 34 33 28 35 37 40 43 42
59 59 59 59 59 59 58 58 57 56 51 43 42 40 34 31 33 35 38 39 38 38 35 41 41 36 42 47 44 43 40 39 40 40 41 34 32 31 27 30 20 35 44 43 40 44 45
59 59 59 59 59 58 58 58 58 57 54 45 43 40 35 29 35 36 38 38 38 39 37 38 42 44 46 40 34 30 30 31 35 38 38 37 31 27 22 24 31 36 41 39 37 37 41
58 59 59 59 59 58 58 58 58 57 55 44 43 44 42 37 32 40 36 35 32 33 36 38 44 46 41 37 33 25 23 28 26 32 38 37 34 27 26 21 18 34 42 44 43 29 44
58 58 58 58 58 58 58 58 58 57 56 47 43 45 44 37 39 38 36 33 39 39 35 40 40 37 38 30 27 25 25 31 25 26 28 27 26 23 23 19 28 39 42 43 28 30 44
57 58 58 58 58 58 58 58 57 57 57 47 43 46 43 38 40 43 44 38 37 36 33 37 35 36 31 24 25 24 27 28 26 28 29 24 20 22 21 17 19 41 43 35 40 44 46
57 57 58 57 58 57 57 57 57 57 57 54 45 46 46 42 40 46 47 48 45 45 39 40 37 38 36 32 30 29 25 30 28 23 34 25 32 28 27 29 40 46 43 46 45 43 44

GFSGBSN_sfc_temp_012.txt.gz
Temp
67 66 65 65 65 65 64 64 63 63 63 64 64 64 64 64 64 64 64 64 65 66 66 65 66 66 62 57 61 72 79 77 71 70 67 65 60 57 53 56 58 55 59 64 66 65 64
66 67 66 65 65 65 64 63 63 63 63 63 64 64 64 64 63 64 64 64 65 66 65 65 66 66 59 53 70 71 72 70 71 68 66 65 62 63 58 57 56 59 60 62 62 62 62
66 65 66 65 65 65 65 64 63 63 63 63 63 64 63 63 63 63 64 64 64 64 64 66 67 67 57 62 68 67 71 68 69 69 65 67 66 61 59 57 62 61 56 57 57 58 60
64 64 64 64 64 64 64 64 63 63 63 63 63 63 62 62 62 63 63 63 63 64 64 66 66 61 56 69 67 69 69 68 70 69 68 68 67 63 59 61 59 54 51 45 54 56 60
64 64 63 63 63 63 63 63 63 62 62 63 62 62 62 62 62 62 62 63 64 65 66 66 60 58 57 72 65 68 68 66 67 68 67 76 66 58 58 51 47 47 42 43 49 57 55
64 64 63 63 63 63 63 63 62 62 62 62 62 61 61 61 61 62 62 63 65 65 65 68 68 55 61 60 65 67 64 69 64 63 63 61 54 49 47 47 40 41 41 43 44 52 51
64 63 63 63 63 62 62 62 62 62 62 62 61 61 61 61 61 61 59 60 59 58 58 58 57 57 61 67 67 64 66 65 63 59 49 52 47 43 46 48 48 46 43 44 48 54 50
63 63 63 63 62 62 62 62 62 62 61 61 61 61 61 61 60 60 56 59 57 59 52 59 59 60 64 65 60 61 67 58 54 48 49 47 43 51 53 51 50 48 44 45 49 53 51
63 63 63 62 62 62 62 61 61 61 61 61 61 60 60 60 60 59 59 59 63 62 50 57 60 59 61 64 58 59 65 56 51 48 48 44 51 56 53 49 48 47 44 46 47 50 51
63 63 62 62 62 62 61 61 61 61 60 60 60 60 60 60 61 58 59 62 62 62 45 53 57 61 63 62 56 65 64 60 52 49 48 46 53 53 49 49 50 43 51 52 49 43 41
62 62 62 62 61 61 61 60 60 60 60 59 59 59 59 60 57 58 61 61 60 59 38 54 57 67 62 57 58 59 63 59 51 51 49 49 49 49 48 50 52 47 54 50 48 42 39
62 62 62 61 61 61 60 60 60 60 60 59 59 58 58 58 56 60 60 59 59 46 35 51 57 56 55 55 57 60 58 60 58 52 50 52 55 55 53 56 55 54 49 46 41 39 33
62 61 61 61 60 60 60 60 60 61 60 59 58 58 58 61 57 59 59 56 44 37 53 48 50 54 51 51 53 54 51 48 47 43 38 46 49 53 56 49 52 50 43 33 32 30 35
61 61 61 60 60 60 60 60 60 60 59 58 57 59 59 62 57 57 57 51 34 44 44 53 52 51 47 50 50 50 47 44 49 44 39 37 38 48 53 49 46 43 43 34 29 28 34
61 61 60 60 60 60 59 60 60 60 59 56 58 55 56 61 59 57 53 39 37 42 49 48 49 44 43 48 47 47 44 44 45 45 38 37 38 52 57 56 52 44 39 47 41 45 37
61 61 60 60 59 59 59 60 60 59 58 56 52 52 55 60 57 55 46 41 43 51 50 49 40 45 39 42 43 42 42 46 45 48 47 42 36 49 51 54 53 48 49 39 37 30 30
61 61 60 60 59 58 59 59 60 59 57 56 51 50 58 58 57 49 38 38 46 52 51 47 42 42 41 39 40 39 43 44 47 46 47 42 39 41 45 43 42 44 44 42 42 43 33
61 61 60 60 59 58 58 59 59 58 55 50 46 44 56 55 44 36 37 42 49 47 49 47 46 44 40 40 38 38 40 43 49 48 41 43 38 33 38 48 50 47 43 43 31 30 31
61 60 60 60 59 58 58 58 58 57 54 44 41 41 52 52 36 33 37 43 46 45 44 43 42 44 42 38 35 38 40 46 46 44 40 43 33 25 31 36 40 38 43 44 39 33 28
60 60 60 60 59 58 58 57 57 57 55 44 41 39 41 39 35 33 32 35 38 45 42 43 41 42 39 36 40 35 37 44 45 45 51 47 35 31 25 30 36 32 37 39 36 27 29
59 60 60 60 59 58 58 57 57 57 55 46 38 34 35 31 34 32 32 34 34 36 40 41 38 37 35 30 33 33 37 39 42 46 43 38 29 33 35 37 37 35 34 35 32 33 27
59 59 59 60 59 58 58 57 57 56 54 42 36 36 35 31 32 29 33 31 35 36 36 36 34 36 35 30 33 30 35 35 36 39 37 36 30 33 29 35 35 31 35 36 36 36 35
59 59 59 59 59 58 58 57 56 55 51 40 39 39 37 34 31 30 31 33 36 36 38 40 37 34 33 36 40 40 42 40 38 35 34 32 29 24 24 32 31 25 34 36 38 39 39
59 59 59 59 59 58 58 58 57 55 50 42 40 38 33 32 31 33 36 37 36 36 34 39 38 33 39 46 44 41 37 38 38 37 39 32 30 30 24 25 14 34 43 43 40 42 41
58 58 59 59 59 58 58 58 58 55 53 44 42 39 34 29 33 34 36 35 36 36 34 37 40 41 41 38 30 29 29 30 33 37 36 36 29 23 19 18 28 33 38 36 34 33 41
58 58 58 58 58 58 58 58 57 57 53 44 41 42 40 32 30 38 34 34 31 28 32 36 42 45 39 33 30 17 20 25 24 30 36 34 33 27 23 19 16 33 42 45 40 27 40
58 58 58 58 58 58 58 58 57 56 55 46 42 44 42 32 36 37 32 32 36 32 33 34 37 35 36 28 27 23 20 29 22 26 25 26 24 23 23 19 24 37 40 41 24 27 41
57 57 58 58 58 58 57 58 57 57 56 49 48 46 40 36 36 41 41 36 36 33 33 34 34 32 29 28 25 23 19 27 24 27 25 22 19 20 20 19 17 40 41 33 38 42 42
57 57 57 57 57 57 57 57 57 57 56 51 45 49 48 42 40 45 47 47 45 44 38 37 33 32 35 32 30 29 25 24 26 22 31 23 29 25 28 28 38 44 42 45 43 42 41